DW6267 Weather Reports


Display with metric or nautical units.
time (UTC)temp
F
wind
direction
speed
MPH
gust
MPH
rain 1hr
in
rain 24hr
in
rain mn
in
humidity
%
barometer
mb
20260504200348 77 305 2.0 0.0 0.00 0.00 0.00 20 1007.2
20260504190342 75 77 3.0 0.0 0.00 0.00 0.00 20 1007.8
20260504180334 75 279 0.0 0.0 0.00 0.00 0.00 24 1008.1
20260504170336 68 262 0.0 0.0 0.00 0.00 0.00 52 1008.7
20260504160332 57 262 0.0 0.0 0.00 0.00 0.00 69 1009.1
20260504150352 52 262 0.0 0.0 0.00 0.00 0.00 79 1009.9
20260504140340 41 262 0.0 0.0 0.00 0.00 0.00 94 1009.6
20260504130345 39 262 0.0 0.0 0.00 0.00 0.00 96 1009.5
20260504110326 40 262 0.0 0.0 0.00 0.00 0.00 93 1010.2
20260504100327 40 262 0.0 0.0 0.00 0.00 0.00 92 1010.2
20260504080403 42 262 0.0 0.0 0.00 0.00 0.00 90 1009.6
20260504070325 43 262 0.0 0.0 0.00 0.00 0.00 87 1009.5
20260504050333 45 262 0.0 0.0 0.00 0.00 0.00 82 1010.3
20260504040334 47 262 0.0 0.0 0.00 0.00 0.00 79 1009.5
20260504030334 51 262 0.0 0.0 0.00 0.00 0.00 74 1008.6
20260504020407 55 262 0.0 0.0 0.00 0.00 0.00 64 1008.7
20260504010330 66 262 0.0 0.0 0.00 0.00 0.00 40 1008.6
20260504000347 75 265 0.0 0.0 0.00 0.00 0.00 26 1008.9
20260503230335 78 250 1.0 0.0 0.00 0.00 0.00 22 1009.1
20260503220335 78 236 0.0 0.0 0.00 0.00 0.00 22 1010.0
20260503210335 77 246 0.0 0.0 0.00 0.00 0.00 22 1010.8